DW4360 Weather Reports


time (UTC)temp
C
wind
direction
speed
KPH
gust
KPH
rain 1hr
cm
rain 24hr
cm
rain mn
cm
humidity
%
barometer
mb
20260901230754 21 227 0.0 0.0 0.00 0.00 0.00 62 1009.7
20260901225754 21 242 0.0 0.0 0.00 0.00 0.00 62 1009.9
20260901224752 21 258 0.0 0.0 0.00 0.00 0.00 62 1009.9
20260901223751 21 223 0.0 0.0 0.00 0.00 0.00 64 1009.9
20260901222750 21 105 0.0 0.0 0.00 0.00 0.00 65 1009.9
20260901221750 20 210 0.0 0.0 0.00 0.00 0.00 68 1009.9
20260901220748 20 233 0.0 0.0 0.00 0.00 0.00 66 1009.9
20260901215747 20 242 8.0 0.0 0.00 0.00 0.00 67 1009.9
20260901214746 20 254 0.0 0.0 0.00 0.00 0.00 68 1009.9
20260901213746 20 254 0.0 0.0 0.00 0.00 0.00 68 1009.9
20260901212744 20 254 0.0 0.0 0.00 0.00 0.00 68 1010.0
20260901211743 20 254 0.0 0.0 0.00 0.00 0.00 67 1010.0
20260901210742 20 265 0.0 0.0 0.00 0.00 0.00 67 1010.0
20260901205741 20 331 0.0 0.0 0.00 0.00 0.00 68 1010.0
20260901204740 20 240 0.0 0.0 0.00 0.00 0.00 68 1010.0
20260901203739 20 239 0.0 0.0 0.00 0.00 0.00 67 1010.1
20260901202738 20 209 0.0 0.0 0.00 0.00 0.00 69 1010.1
20260901201737 20 250 0.0 0.0 0.00 0.00 0.00 70 1010.2
20260901200736 20 231 0.0 0.0 0.00 0.00 0.00 69 1010.2
20260901195735 20 223 0.0 0.0 0.00 0.00 0.00 70 1010.1
20260901194734 20 223 0.0 0.0 0.00 0.00 0.00 69 1010.2
20260901193733 20 195 0.0 0.0 0.00 0.00 0.00 68 1010.3
20260901192732 20 194 0.0 0.0 0.00 0.00 0.00 69 1010.5
20260901190730 19 248 0.0 0.0 0.00 0.00 0.00 73 1010.8
20260901185729 18 248 0.0 0.0 0.00 0.00 0.00 73 1010.7
20260901184728 18 194 3.2 0.0 0.00 0.00 0.00 74 1010.9
20260901183727 18 208 4.8 0.0 0.00 0.00 0.00 78 1010.9
20260901182726 17 216 0.0 0.0 0.00 0.00 0.00 78 1010.9
20260901181725 17 229 0.0 0.0 0.00 0.00 0.00 80 1011.0
20260901175723 16 229 0.0 0.0 0.00 0.00 0.00 83 1011.1
20260901174722 16 228 0.0 0.0 0.00 0.00 0.00 85 1011.2
20260901172720 16 227 0.0 0.0 0.00 0.00 0.00 86 1011.1
20260901171719 16 227 0.0 0.0 0.00 0.00 0.00 87 1011.0
20260901170718 15 244 8.0 0.0 0.00 0.00 0.00 88 1011.0
20260901165717 15 253 0.0 0.0 0.00 0.00 0.00 89 1010.9
20260901164716 15 251 0.0 0.0 0.00 0.00 0.00 88 1010.9
20260901163715 15 238 0.0 0.0 0.00 0.00 0.00 88 1010.9
20260901162714 15 223 0.0 0.0 0.00 0.00 0.00 87 1011.0
20260901161713 15 223 0.0 0.0 0.00 0.00 0.00 87 1010.9
20260901160712 15 223 0.0 0.0 0.00 0.00 0.00 86 1010.9
20260901155711 15 252 0.0 0.0 0.00 0.00 0.00 86 1010.9
20260901154710 15 253 3.2 0.0 0.00 0.00 0.00 84 1010.8
20260901153708 16 232 0.0 0.0 0.00 0.00 0.00 83 1010.9
20260901152708 16 248 3.2 0.0 0.00 0.00 0.00 83 1010.8
20260901151707 16 237 0.0 0.0 0.00 0.00 0.00 82 1010.7
20260901150705 15 237 1.6 0.0 0.00 0.00 0.00 82 1010.6
20260901144704 15 235 0.0 0.0 0.00 0.00 0.00 81 1010.4
20260901143703 15 235 0.0 0.0 0.00 0.00 0.00 81 1010.4
20260901142702 15 235 0.0 0.0 0.00 0.00 0.00 81 1010.4
20260901141700 15 235 0.0 0.0 0.00 0.00 0.00 81 1010.4
20260901140659 15 235 0.0 0.0 0.00 0.00 0.00 82 1010.3
20260901135658 15 235 0.0 0.0 0.00 0.00 0.00 82 1010.2
20260901134658 15 235 0.0 0.0 0.00 0.00 0.00 82 1010.2
20260901133657 15 219 0.0 0.0 0.00 0.00 0.00 82 1010.1
20260901132655 15 219 0.0 0.0 0.00 0.00 0.00 82 1010.2
20260901131655 15 219 0.0 0.0 0.00 0.00 0.00 82 1010.1
20260901130653 15 219 0.0 0.0 0.00 0.00 0.00 82 1010.1
20260901125653 15 219 0.0 0.0 0.00 0.00 0.00 82 1010.0
20260901124652 15 219 0.0 0.0 0.00 0.00 0.00 82 1010.0
20260901123651 15 219 0.0 0.0 0.00 0.00 0.00 82 1009.9
20260901122649 15 219 0.0 0.0 0.00 0.00 0.00 83 1010.0
20260901120648 15 219 0.0 0.0 0.00 0.00 0.00 83 1010.0
20260901114645 15 219 0.0 0.0 0.00 0.00 0.00 83 1010.0
20260901113644 15 219 0.0 0.0 0.00 0.00 0.00 83 1010.0
20260901112643 15 219 0.0 0.0 0.00 0.00 0.00 83 1010.0
20260901111643 15 219 0.0 0.0 0.00 0.00 0.00 83 1009.9
20260901110641 15 219 0.0 0.0 0.00 0.00 0.00 82 1009.8
20260901105640 15 219 0.0 0.0 0.00 0.00 0.00 82 1009.8
20260901104639 15 236 0.0 0.0 0.00 0.00 0.00 82 1009.7
20260901103638 15 207 0.0 0.0 0.00 0.00 0.00 81 1009.7
20260901102637 15 207 0.0 0.0 0.00 0.00 0.00 81 1009.6
20260901101636 15 239 3.2 0.0 0.00 0.00 0.00 81 1009.6
20260901100635 15 241 0.0 0.0 0.00 0.00 0.00 81 1009.6
20260901095634 15 248 3.2 0.0 0.00 0.00 0.00 80 1009.6
20260901094633 16 244 0.0 0.0 0.00 0.00 0.00 80 1009.5
20260901093632 16 245 0.0 0.0 0.00 0.00 0.00 79 1009.5
20260901091630 16 208 1.6 0.0 0.00 0.00 0.00 79 1009.2
20260901085628 16 248 6.4 0.0 0.00 0.00 0.00 78 1008.9
20260901084627 16 218 0.0 0.0 0.00 0.00 0.00 78 1009.0
20260901083626 16 244 0.0 0.0 0.00 0.00 0.00 77 1009.0
20260901082625 16 250 3.2 0.0 0.00 0.00 0.00 77 1009.1
20260901080623 17 234 0.0 0.0 0.00 0.00 0.00 76 1009.0
20260901075622 17 217 4.8 0.0 0.00 0.00 0.00 75 1009.0
20260901074621 17 251 0.0 0.0 0.00 0.00 0.00 74 1008.8
20260901073620 17 196 0.0 0.0 0.00 0.00 0.00 73 1008.7
20260901072619 18 208 3.2 0.0 0.00 0.00 0.00 72 1008.6
20260901071618 18 209 0.0 0.0 0.00 0.00 0.00 71 1008.5
20260901070617 18 204 0.0 0.0 0.00 0.00 0.00 71 1008.4
20260901065616 18 254 0.0 0.0 0.00 0.00 0.00 70 1008.3
20260901064615 19 250 0.0 0.0 0.00 0.00 0.00 69 1008.0
20260901063614 19 205 0.0 0.0 0.00 0.00 0.00 68 1007.9
20260901062613 20 184 0.0 0.0 0.00 0.00 0.00 66 1007.6
20260901060611 20 183 0.0 0.0 0.00 0.00 0.00 64 1007.4
20260901055610 21 182 0.0 0.0 0.00 0.00 0.00 63 1007.2
20260901054609 21 194 0.0 0.0 0.00 0.00 0.00 62 1007.2
20260901053608 21 201 0.0 0.0 0.00 0.00 0.00 61 1007.1
20260901052607 21 227 0.0 0.0 0.00 0.00 0.00 61 1007.1
20260901051606 21 251 0.0 0.0 0.00 0.00 0.00 61 1007.1
20260901050605 21 251 0.0 0.0 0.00 0.00 0.00 60 1006.9
20260901045604 21 251 0.0 0.0 0.00 0.00 0.00 59 1006.9
20260901044602 21 251 0.0 0.0 0.00 0.00 0.00 58 1006.7
20260901043601 22 251 0.0 0.0 0.00 0.00 0.00 57 1006.7
20260901042600 22 251 0.0 0.0 0.00 0.00 0.00 56 1006.5
20260901041559 22 251 0.0 0.0 0.00 0.00 0.00 56 1006.4
20260901040559 22 251 0.0 0.0 0.00 0.00 0.00 55 1006.2
20260901035557 23 251 0.0 0.0 0.00 0.00 0.00 52 1006.0
20260901034557 23 251 0.0 0.0 0.00 0.00 0.00 51 1006.0
20260901033556 24 251 0.0 0.0 0.00 0.00 0.00 50 1005.8
20260901031553 25 251 0.0 0.0 0.00 0.00 0.00 47 1005.5
20260901030552 25 251 0.0 0.0 0.00 0.00 0.00 46 1005.5
20260901025552 26 251 0.0 0.0 0.00 0.00 0.00 44 1005.5
20260901023549 27 251 0.0 0.0 0.00 0.00 0.00 41 1005.5
20260901022549 27 251 0.0 0.0 0.00 0.00 0.00 42 1005.5
20260901015546 28 196 0.0 0.0 0.00 0.00 0.00 40 1005.3
20260901014544 28 248 0.0 0.0 0.00 0.00 0.00 40 1005.2
20260901013543 28 224 0.0 0.0 0.00 0.00 0.00 39 1005.2
20260901012542 28 246 0.0 0.0 0.00 0.00 0.00 39 1005.3
20260901011541 29 246 0.0 0.0 0.00 0.00 0.00 38 1005.4
20260901005539 31 205 4.8 0.0 0.00 0.00 0.00 34 1005.3
20260901004538 31 225 0.0 0.0 0.00 0.00 0.00 33 1005.3
20260901003537 32 236 0.0 0.0 0.00 0.00 0.00 33 1005.3
20260901002536 32 232 0.0 0.0 0.00 0.00 0.00 32 1005.4
20260901000534 31 233 0.0 0.0 0.00 0.00 0.00 33 1005.5
20260831235533 31 233 0.0 0.0 0.00 0.00 0.00 32 1005.5
20260831233531 31 252 0.0 0.0 0.00 0.00 0.00 31 1005.6
20260831231529 31 338 0.0 0.0 0.00 0.00 0.00 31 1005.6